FW4270 Weather Reports


time (UTC)temp
F
wind
direction
speed
knots
gust
knots
rain 1hr
in
rain 24hr
in
rain mn
in
humidity
%
barometer
mb
20260504042020 81 184 6.1 13.0 0.00 0.00 0.00 56 1010.0
20260504041520 81 180 6.1 11.3 0.00 0.00 0.00 57 1010.0
20260504041019 81 182 5.2 12.2 0.00 0.00 0.00 56 1009.9
20260504040520 81 181 5.2 12.2 0.00 0.00 0.00 57 1009.8
20260504040020 81 174 5.2 11.3 0.00 0.00 0.00 56 1009.7
20260504035516 80 190 4.3 8.7 0.00 0.00 0.00 58 1009.6
20260504035016 80 182 3.5 7.8 0.00 0.00 0.00 58 1009.6
20260504034516 80 161 3.5 7.0 0.00 0.00 0.00 58 1009.4
20260504034016 80 151 2.6 6.1 0.00 0.00 0.00 57 1009.3
20260504033518 80 116 3.5 7.8 0.00 0.00 0.00 56 1009.3
20260504033016 80 155 3.5 7.8 0.00 0.00 0.00 56 1009.2
20260504032516 80 121 2.6 7.0 0.00 0.00 0.00 57 1009.1
20260504032014 80 122 1.7 5.2 0.00 0.00 0.00 56 1009.0
20260504031514 80 248 0.9 3.5 0.00 0.00 0.00 57 1008.8
20260504031010 80 250 0.9 3.5 0.00 0.00 0.00 57 1008.8
20260504030509 80 250 0.9 2.6 0.00 0.00 0.00 57 1008.7
20260504030010 80 250 0.9 2.6 0.00 0.00 0.00 58 1008.5
20260504025509 80 251 0.9 2.6 0.00 0.00 0.00 58 1008.5
20260504025003 79 250 0.9 2.6 0.00 0.00 0.00 58 1008.6
20260504024502 79 251 0.9 2.6 0.00 0.00 0.00 60 1008.4
20260504024002 78 251 0.9 2.6 0.00 0.00 0.00 61 1008.2
20260504023504 78 252 0.9 2.6 0.00 0.00 0.00 61 1008.2
20260504022959 78 252 1.7 2.6 0.00 0.00 0.00 63 1008.1
20260504022500 77 252 1.7 3.5 0.00 0.00 0.00 63 1008.0
20260504022002 77 252 0.9 3.5 0.00 0.00 0.00 64 1007.9
20260504021500 77 322 0.9 1.7 0.00 0.00 0.00 64 1007.9
20260504020958 76 321 0.0 1.7 0.00 0.00 0.00 65 1007.9
20260504020458 76 321 0.0 0.0 0.00 0.00 0.00 68 1007.8
20260504015958 76 321 0.0 0.0 0.00 0.00 0.00 69 1007.8
20260504015459 75 321 0.0 0.0 0.00 0.00 0.00 69 1007.7
20260504014959 75 321 0.0 0.0 0.00 0.00 0.00 70 1007.6
20260504014456 74 321 0.0 0.0 0.00 0.00 0.00 71 1007.6
20260504013956 74 321 0.0 0.0 0.00 0.00 0.00 72 1007.5
20260504013501 73 321 0.0 0.0 0.00 0.00 0.00 72 1007.5
20260504012954 73 321 0.0 0.0 0.00 0.00 0.00 72 1007.4
20260504012447 73 321 0.0 0.0 0.00 0.00 0.00 72 1007.4
20260504011941 72 321 0.0 0.0 0.00 0.00 0.00 72 1007.8
20260504011434 72 321 0.0 1.7 0.00 0.00 0.00 72 1007.4
20260504010929 72 321 0.9 3.5 0.00 0.00 0.00 72 1007.3
20260504010423 72 321 1.7 3.5 0.00 0.00 0.00 73 1007.3
20260504005917 72 321 1.7 3.5 0.00 0.00 0.00 73 1007.3
20260504005630 72 322 1.7 2.6 0.00 0.00 0.00 73 1007.3
20260504004905 72 323 0.9 2.6 0.00 0.00 0.00 74 1007.1
20260504004359 72 344 0.0 0.0 0.00 0.00 0.00 74 1007.0
20260504003853 72 344 0.0 0.0 0.00 0.00 0.00 74 1006.9
20260504003348 72 344 0.0 0.0 0.00 0.00 0.00 73 1006.9
20260504002841 72 344 0.0 0.0 0.00 0.00 0.00 73 1006.9
20260504002335 72 344 0.0 0.0 0.00 0.00 0.00 73 1006.9
20260504001829 72 344 0.0 0.0 0.00 0.00 0.00 73 1006.8
20260504001324 72 344 0.0 0.9 0.00 0.00 0.00 72 1006.8
20260504000817 72 344 0.0 0.9 0.00 0.00 0.00 72 1006.8
20260504000312 72 344 0.0 0.9 0.00 0.00 0.00 72 1006.7
20260503235805 72 344 0.0 2.6 0.00 0.00 0.00 72 1006.7
20260503235527 72 344 0.0 2.6 0.00 0.00 0.00 72 1006.6
20260503235019 72 345 0.0 1.7 0.00 0.00 0.00 71 1006.7
20260503234247 72 0 0.0 0.0 0.00 0.00 0.00 71 1006.6
20260503233741 72 0 0.0 0.0 0.00 0.00 0.00 72 1006.7
20260503233503 72 0 0.0 0.0 0.00 0.00 0.00 72 1006.5
20260503232729 72 0 0.0 0.0 0.00 0.00 0.00 72 1006.6
20260503232223 72 14 0.0 0.0 0.00 0.00 0.00 72 1006.7
20260503231211 72 14 0.0 0.0 0.00 0.00 0.00 72 1006.6
20260503230705 72 14 0.0 0.0 0.00 0.00 0.00 72 1006.6
20260503230159 72 14 0.0 0.0 0.00 0.00 0.00 73 1006.6
20260503225653 73 14 0.0 0.0 0.00 0.00 0.00 73 1006.5
20260503225148 73 14 0.0 0.0 0.00 0.00 0.00 72 1006.4
20260503224641 73 14 0.0 0.0 0.00 0.00 0.00 72 1006.5
20260503224135 73 14 0.0 0.0 0.00 0.00 0.00 71 1006.5
20260503223854 73 14 0.0 0.0 0.00 0.00 0.00 71 1006.5
20260503223125 73 14 0.0 0.0 0.00 0.00 0.00 71 1006.5
20260503222849 73 14 0.0 0.0 0.00 0.00 0.00 70 1006.5
20260503222340 74 14 0.0 0.0 0.00 0.00 0.00 70 1006.4
20260503221120 74 14 0.0 0.0 0.00 0.00 0.00 67 1006.5
20260503220619 74 14 0.0 0.0 0.00 0.00 0.00 68 1006.5
20260503220117 74 14 0.0 0.0 0.00 0.00 0.00 68 1006.6
20260503215614 74 14 0.0 0.0 0.00 0.00 0.00 67 1006.8
20260503215115 74 14 0.0 0.0 0.00 0.00 0.00 67 1006.8
20260503214615 74 14 0.0 0.0 0.00 0.00 0.00 66 1006.9
20260503214113 74 14 0.0 0.0 0.00 0.00 0.00 66 1006.8
20260503213827 74 14 0.0 0.0 0.00 0.01 0.00 66 1006.9
20260503213113 74 14 0.0 0.0 0.00 0.02 0.00 66 1006.9
20260503212609 74 14 0.0 1.7 0.00 0.02 0.00 66 1006.8
20260503212109 74 14 0.0 1.7 0.00 0.03 0.00 66 1006.8
20260503211611 74 14 0.9 1.7 0.00 0.05 0.00 66 1006.9
20260503211110 74 14 0.9 2.6 0.00 0.07 0.00 66 1006.9
20260503210609 74 14 0.0 2.6 0.00 0.09 0.00 66 1006.8
20260503210110 74 14 0.0 0.0 0.00 0.11 0.00 67 1006.8
20260503205611 74 14 0.0 0.0 0.00 0.13 0.00 67 1006.8
20260503205111 74 14 0.0 0.9 0.00 0.15 0.00 66 1006.9
20260503204613 74 14 0.0 0.9 0.00 0.17 0.00 66 1006.9
20260503204111 74 14 0.0 0.9 0.00 0.19 0.00 67 1006.9
20260503203609 74 14 0.0 0.9 0.00 0.20 0.00 67 1006.8
20260503203333 74 14 0.0 0.9 0.00 0.20 0.00 66 1007.0
20260503202611 74 14 0.9 2.6 0.00 0.20 0.00 66 1007.0
20260503202108 74 14 0.9 2.6 0.00 0.21 0.00 66 1007.0
20260503201608 74 15 0.0 0.0 0.00 0.22 0.00 67 1007.2
20260503201109 75 15 0.0 0.0 0.00 0.22 0.00 67 1007.2
20260503200605 75 15 0.0 0.0 0.00 0.22 0.00 67 1007.2
20260503200105 75 15 0.0 0.0 0.00 0.22 0.00 67 1007.1
20260503195605 75 15 0.0 0.0 0.00 0.22 0.00 66 1007.1
20260503195329 75 15 0.0 1.7 0.00 0.22 0.00 66 1007.1
20260503194606 75 15 0.9 1.7 0.00 0.22 0.00 66 1007.2
20260503194106 75 15 0.9 1.7 0.00 0.22 0.00 66 1007.2
20260503193605 76 15 0.0 1.7 0.00 0.22 0.00 66 1007.2
20260503193103 76 15 0.0 0.0 0.00 0.22 0.00 65 1007.3
20260503192603 76 15 0.0 1.7 0.00 0.22 0.00 65 1007.3
20260503191609 76 15 0.9 2.6 0.00 0.22 0.00 65 1007.4
20260503191109 76 15 0.9 2.6 0.00 0.22 0.00 65 1007.5
20260503190606 76 15 0.9 2.6 0.00 0.22 0.00 64 1007.4
20260503190329 76 15 0.9 2.6 0.00 0.22 0.00 63 1007.5
20260503185603 77 15 1.7 3.5 0.00 0.22 0.22 62 1007.5
20260503185057 77 15 1.7 4.3 0.00 0.22 0.22 62 1007.6
20260503184551 77 25 1.7 4.3 0.00 0.22 0.22 62 1007.5
20260503184045 77 33 2.6 5.2 0.00 0.22 0.22 62 1007.4
20260503183539 77 34 2.6 5.2 0.00 0.22 0.22 62 1007.4
20260503183036 77 42 2.6 6.1 0.00 0.22 0.22 62 1007.4
20260503182527 77 26 2.6 6.1 0.00 0.22 0.22 63 1007.4
20260503182031 77 30 2.6 4.3 0.00 0.22 0.22 63 1007.6
20260503181737 77 25 1.7 4.3 0.00 0.22 0.22 63 1007.7
20260503180503 77 24 1.7 3.5 0.00 0.22 0.22 63 1007.6
20260503175958 77 24 1.7 3.5 0.00 0.22 0.22 63 1007.8
20260503175451 78 23 1.7 4.3 0.00 0.22 0.22 63 1007.8
20260503174945 78 18 1.7 4.3 0.00 0.22 0.22 63 1007.9
20260503174440 78 5 1.7 3.5 0.00 0.22 0.22 63 1007.9
20260503173933 78 5 1.7 3.5 0.00 0.22 0.22 63 1008.0
20260503173427 78 295 0.9 3.5 0.00 0.22 0.22 63 1008.0
20260503172923 78 286 0.0 0.0 0.00 0.22 0.22 63 1008.0
20260503172415 78 286 0.0 0.0 0.00 0.22 0.22 62 1008.0
20260503171913 79 286 0.0 0.0 0.00 0.22 0.22 62 1008.1
20260503171412 79 286 0.0 0.0 0.00 0.22 0.22 62 1008.1
20260503171133 79 286 0.0 0.0 0.00 0.22 0.22 62 1008.1
20260503170412 79 286 0.0 0.0 0.00 0.22 0.22 61 1008.1
20260503160138 82 239 0.0 0.0 0.00 0.22 0.22 55 1007.7
20260503150856 83 234 0.0 0.0 0.00 0.22 0.22 51 1007.3
20260503150355 83 234 0.0 0.0 0.00 0.22 0.22 51 1007.3
20260503131345 86 168 2.6 6.1 0.00 0.28 0.22 45 1005.9
20260503130845 87 173 0.9 4.3 0.00 0.28 0.22 45 1006.0
20260503130344 87 182 0.9 4.3 0.00 0.28 0.22 45 1005.8
20260503090239 91 123 2.6 9.6 0.00 0.28 0.22 40 1007.1
20260503081140 90 49 1.7 6.1 0.00 0.28 0.22 41 1007.4
20260503080634 90 99 1.7 4.3 0.00 0.28 0.22 42 1007.5
20260503080349 90 161 1.7 5.2 0.00 0.28 0.22 41 1007.6
20260503072546 87 120 1.7 7.0 0.00 0.28 0.22 42 1007.7
20260503072300 87 25 2.6 7.0 0.00 0.28 0.22 44 1007.7
20260503071800 87 94 2.6 7.0 0.00 0.28 0.22 44 1007.8
20260503071252 87 100 1.7 6.1 0.00 0.28 0.22 44 1007.8
20260503070522 87 155 2.6 6.1 0.00 0.28 0.22 42 1007.7
20260503054936 86 96 0.9 5.2 0.00 0.28 0.22 45 1007.8
20260503054438 85 96 0.9 5.2 0.00 0.28 0.22 46 1007.8
20260503053940 85 71 1.7 4.3 0.00 0.28 0.22 46 1007.8
20260503053438 84 70 2.6 4.3 0.00 0.28 0.22 45 1007.7
20260503052934 84 82 2.6 5.2 0.00 0.28 0.22 46 1007.7
20260503052432 84 86 1.7 5.2 0.00 0.28 0.22 48 1007.6
20260503052152 84 48 1.7 3.5 0.00 0.28 0.22 49 1007.7
20260503051432 83 297 1.7 3.5 0.00 0.28 0.22 48 1007.6
20260503050934 83 294 1.7 3.5 0.00 0.28 0.22 48 1007.7
20260503050428 83 291 1.7 3.5 0.00 0.28 0.22 48 1007.6
20260503045928 83 289 1.7 5.2 0.00 0.28 0.22 48 1007.6
20260503045429 83 285 0.9 5.2 0.00 0.28 0.22 48 1007.5
20260503044924 83 230 0.9 2.6 0.00 0.28 0.22 49 1007.4
20260503044424 82 229 1.7 4.3 0.00 0.28 0.22 48 1007.5
20260503043924 82 227 1.7 4.3 0.00 0.28 0.22 49 1007.4
20260503043426 81 286 0.9 2.6 0.00 0.28 0.22 52 1007.4
20260503042926 81 279 0.9 2.6 0.00 0.28 0.22 52 1007.3
20260503042430 80 279 1.7 4.3 0.00 0.28 0.22 55 1007.2